Location: Czekanka
(50.4925°N, 19.2643°E)
Time: 06:11:30
(UTC+00:00)

SL-16 R/B - Pass Details

Date: 27 September 2024
Orbit: 842 x 846 km, 71.0° (Epoch: 05 October)

Event Time Altitude Azimuth Distance (km) Brightness Sun altitude
Rises 18:53:38 0° 255° (WSW) 3,400 6.1 -23.1°
Reaches altitude 10° 18:56:36 10° 269° (W) 2,468 5.5 -23.5°
Maximum altitude 19:01:02 23° 321° (NW) 1,731 4.5 -24.1°
Drops below altitude 10° 19:05:29 10° 13° (NNE) 2,475 4.8 -24.8°
Sets 19:08:29 0° 28° (NNE) 3,412 5.4 -25.2°
